Weather History for Spirit of St Louis, MO

Change the Weather History Date:

Thursday, February 14, 2013

  Actual Average Record
Temperature  
Mean Temperature 47 °F -  
Max Temperature 57 °F 44 °F 69 °F (2006)
Min Temperature 37 °F 27 °F 12 °F (2007)
Degree Days  
Heating Degree Days 18    
Moisture  
Dew Point 30 °F    
Average Humidity 56    
Maximum Humidity 73    
Minimum Humidity 33    
Precipitation  
Precipitation 0.00 in - - ()
Sea Level Pressure  
Sea Level Pressure 29.94 in    
Wind  
Wind Speed 10 mph (West)    
Max Wind Speed 16 mph    
Max Gust Speed 22 mph    
Visibility 10 miles    
Events      
Averages and records for this station are not official NWS values.
T = Trace of Precipitation, MM = Missing Value Source: NWS Daily Summary

Daily Weather History Graph

Daily Weather History Graph

Search for Another Location

Airport:

Trip Planner

Search our weather history database for the weather conditions in past years. The results will help you decide how hot, cold, wet, or windy it might be!

Date:

Astronomy

Feb. 14, 2013 Rise Set
Actual Time 6:54 AM CST 5:39 PM CST
Civil Twilight 6:27 AM CST 6:06 PM CST
Nautical Twilight 5:56 AM CST 6:38 PM CST
Astronomical Twilight 5:25 AM CST 7:08 PM CST
Moon 9:00 AM CST (2/14) 10:38 PM CST (2/14)
Length of Visible Light 11h 39m
Length of Day
10h 45m
Waxing Crescent, 22% of the Moon is Illuminated
Feb 14
Waxing Crescent
Feb 17
First Quarter
Feb 25
Full
Mar 4
Last Quarter
Mar 11
New

Hourly Weather History & Observations

Time (CST) Temp. Windchill Dew Point Humidity Pressure Visibility Wind Dir Wind Speed Gust Speed Precip Events Conditions
12:54 AM 42.1 °F 36.6 °F 30.9 °F 65% 29.84 in 10.0 mi SW 9.2 mph - N/A   Clear
1:54 AM 41.0 °F 34.3 °F 30.0 °F 65% 29.84 in 10.0 mi WSW 11.5 mph - N/A   Clear
2:54 AM 41.0 °F 34.3 °F 30.0 °F 65% 29.83 in 10.0 mi WSW 11.5 mph - N/A   Mostly Cloudy
3:54 AM 41.0 °F 34.3 °F 30.0 °F 65% 29.82 in 10.0 mi WSW 11.5 mph - N/A   Partly Cloudy
4:54 AM 39.9 °F 32.9 °F 30.0 °F 68% 29.83 in 10.0 mi WSW 11.5 mph - N/A   Clear
5:54 AM 39.9 °F 33.4 °F 30.0 °F 68% 29.84 in 10.0 mi WSW 10.4 mph - N/A   Clear
6:54 AM 39.0 °F 32.3 °F 28.9 °F 67% 29.86 in 10.0 mi WSW 10.4 mph - N/A   Partly Cloudy
7:54 AM 41.0 °F 34.7 °F 30.0 °F 65% 29.90 in 10.0 mi WSW 10.4 mph - N/A   Mostly Cloudy
8:54 AM 42.1 °F 36.6 °F 30.0 °F 62% 29.92 in 10.0 mi West 9.2 mph - N/A   Mostly Cloudy
9:54 AM 48.0 °F - 32.0 °F 54% 29.92 in 10.0 mi WSW 9.2 mph - N/A   Partly Cloudy
10:54 AM 52.0 °F - 32.0 °F 47% 29.94 in 10.0 mi NW 16.1 mph 19.6 mph N/A   Partly Cloudy
11:54 AM 54.0 °F - 32.0 °F 43% 29.94 in 10.0 mi WNW 13.8 mph 21.9 mph N/A   Scattered Clouds
12:54 PM 54.0 °F - 32.0 °F 43% 29.92 in 10.0 mi WSW 12.7 mph - N/A   Mostly Cloudy
1:54 PM 57.0 °F - 30.9 °F 37% 29.91 in 10.0 mi WSW 13.8 mph 20.7 mph N/A   Partly Cloudy
2:54 PM 57.0 °F - 28.0 °F 33% 29.93 in 10.0 mi West 10.4 mph 19.6 mph N/A   Clear
3:54 PM 53.1 °F - 28.9 °F 40% 29.95 in 10.0 mi NW 11.5 mph - N/A   Scattered Clouds
4:54 PM 52.0 °F - 30.0 °F 43% 29.97 in 10.0 mi NW 13.8 mph - N/A   Scattered Clouds
5:54 PM 46.9 °F - 30.9 °F 54% 30.01 in 10.0 mi NW 8.1 mph - N/A   Mostly Cloudy
6:54 PM 46.9 °F - 30.0 °F 52% 30.04 in 10.0 mi NW 12.7 mph - N/A   Clear
7:54 PM 45.0 °F 41.2 °F 28.9 °F 53% 30.06 in 10.0 mi WNW 6.9 mph - N/A   Clear
8:54 PM 41.0 °F 38.0 °F 30.0 °F 65% 30.06 in 10.0 mi WSW 4.6 mph - N/A   Partly Cloudy
9:54 PM 37.9 °F - 30.0 °F 73% 30.06 in 10.0 mi Calm Calm - N/A   Mostly Cloudy
10:54 PM 42.1 °F 37.1 °F 28.9 °F 60% 30.07 in 10.0 mi NW 8.1 mph - N/A   Scattered Clouds
11:54 PM 41.0 °F 38.0 °F 28.9 °F 62% 30.08 in 10.0 mi WNW 4.6 mph - N/A   Overcast